GW4240 Weather Reports


Display with metric or nautical units.
time (UTC)temp
F
wind
direction
speed
MPH
gust
MPH
rain 1hr
in
rain 24hr
in
rain mn
in
humidity
%
barometer
mb
20260901192525 68 134 5.0 8.0 0.00 0.00 0.00 75 1009.1
20260901192025 68 190 4.0 10.0 0.00 0.00 0.00 75 1009.0
20260901191603 67 153 3.0 10.0 0.00 0.00 0.00 76 1009.0
20260901191025 68 175 4.0 10.0 0.00 0.00 0.00 74 1009.0
20260901190528 68 233 2.0 6.0 0.00 0.00 0.00 74 1009.1
20260901190046 68 12 2.0 7.0 0.00 0.00 0.00 75 1009.1
20260901185524 68 271 3.0 7.0 0.00 0.00 0.00 73 1009.0
20260901185028 69 146 3.0 7.0 0.00 0.00 0.00 73 1009.1
20260901184554 69 174 4.0 7.0 0.00 0.00 0.00 72 1009.1
20260901184026 69 224 3.0 7.0 0.00 0.00 0.00 73 1009.0
20260901183529 69 113 3.0 7.0 0.00 0.00 0.00 73 1009.1
20260901183057 68 135 3.0 6.0 0.00 0.00 0.00 73 1009.1
20260901182528 68 136 2.0 5.0 0.00 0.00 0.00 75 1009.0
20260901182026 67 205 2.0 5.0 0.00 0.00 0.00 76 1009.0
20260901181550 67 170 1.0 3.0 0.00 0.00 0.00 77 1009.1
20260901181025 66 203 1.0 3.0 0.00 0.00 0.00 79 1009.2
20260901180527 65 120 0.0 3.0 0.00 0.00 0.00 79 1009.2
20260901180048 65 131 0.0 3.0 0.00 0.00 0.00 80 1009.3
20260901175529 64 178 1.0 4.0 0.00 0.00 0.00 81 1009.3
20260901175027 64 0 1.0 4.0 0.00 0.00 0.00 81 1009.3
20260901174554 64 211 2.0 4.0 0.00 0.00 0.00 82 1009.3
20260901174025 64 179 2.0 4.0 0.00 0.00 0.00 84 1009.4
20260901173529 64 155 1.0 3.0 0.00 0.00 0.00 84 1009.3
20260901173054 63 152 1.0 4.0 0.00 0.00 0.00 84 1009.3
20260901172525 63 166 2.0 4.0 0.00 0.00 0.00 84 1009.3
20260901172027 64 117 1.0 4.0 0.00 0.00 0.00 85 1009.4
20260901171550 64 224 1.0 4.0 0.00 0.00 0.00 84 1009.4
20260901171023 64 154 1.0 4.0 0.00 0.00 0.00 85 1009.3
20260901170526 63 201 2.0 4.0 0.00 0.00 0.00 86 1009.3
20260901170048 63 167 1.0 4.0 0.00 0.00 0.00 87 1009.3
20260901165525 62 193 1.0 4.0 0.00 0.00 0.00 88 1009.3
20260901165026 62 157 1.0 4.0 0.00 0.00 0.00 90 1009.3
20260901164557 61 125 2.0 4.0 0.00 0.00 0.00 90 1009.3
20260901164026 61 114 0.0 2.0 0.00 0.00 0.00 91 1009.2
20260901163528 60 0 0.0 2.0 0.00 0.00 0.00 91 1009.2
20260901163057 60 0 1.0 3.0 0.00 0.00 0.00 91 1009.3
20260901162525 60 130 1.0 3.0 0.00 0.00 0.00 92 1009.4
20260901162025 59 114 2.0 3.0 0.00 0.00 0.00 92 1009.4
20260901161551 59 72 1.0 4.0 0.00 0.00 0.00 92 1009.3
20260901161027 59 117 2.0 4.0 0.00 0.00 0.00 92 1009.3
20260901160526 59 91 1.0 4.0 0.00 0.00 0.00 94 1009.3
20260901160046 59 79 2.0 4.0 0.00 0.00 0.00 94 1009.4
20260901155528 58 79 2.0 3.0 0.00 0.00 0.00 94 1009.4
20260901155025 58 76 2.0 3.0 0.00 0.00 0.00 95 1009.3
20260901154550 58 51 2.0 4.0 0.00 0.00 0.00 95 1009.4
20260901154025 58 84 2.0 4.0 0.00 0.00 0.00 96 1009.5
20260901153527 57 70 2.0 3.0 0.00 0.00 0.00 96 1009.4
20260901153113 57 78 1.0 3.0 0.00 0.00 0.00 97 1009.4
20260901152524 56 79 2.0 3.0 0.00 0.00 0.00 97 1009.4
20260901152024 56 88 2.0 3.0 0.00 0.00 0.00 97 1009.4
20260901151547 56 89 1.0 2.0 0.00 0.00 0.00 97 1009.3
20260901151027 56 89 1.0 2.0 0.00 0.00 0.00 97 1009.4
20260901150530 55 0 0.0 1.0 0.00 0.00 0.00 97 1009.3
20260901150047 55 0 0.0 0.0 0.00 0.00 0.00 97 1009.3
20260901145525 55 0 0.0 0.0 0.00 0.00 0.00 97 1009.2
20260901145031 54 0 0.0 0.0 0.00 0.00 0.00 97 1009.2
20260901144547 54 0 0.0 0.0 0.00 0.00 0.00 98 1009.0
20260901144029 54 0 0.0 0.0 0.00 0.00 0.00 97 1009.1
20260901143527 53 0 0.0 0.0 0.00 0.00 0.00 97 1009.0
20260901143050 53 0 0.0 0.0 0.00 0.00 0.00 97 1009.0
20260901142525 53 0 0.0 0.0 0.00 0.00 0.00 97 1009.0
20260901142028 52 0 0.0 0.0 0.00 0.00 0.00 97 1008.9
20260901141552 52 0 0.0 0.0 0.00 0.00 0.00 97 1008.9
20260901141026 52 0 0.0 0.0 0.00 0.00 0.00 96 1008.7
20260901140531 53 0 0.0 0.0 0.00 0.00 0.00 97 1008.6
20260901140048 53 0 0.0 1.0 0.00 0.00 0.00 96 1008.7
20260901135525 53 0 0.0 1.0 0.00 0.00 0.00 97 1008.7
20260901135026 53 17 0.0 1.0 0.00 0.00 0.00 97 1008.7
20260901134545 52 0 0.0 0.0 0.00 0.00 0.00 97 1008.6
20260901134026 52 0 0.0 0.0 0.00 0.00 0.00 97 1008.5
20260901133526 52 0 0.0 0.0 0.00 0.00 0.00 96 1008.4
20260901133048 52 0 0.0 1.0 0.00 0.00 0.00 97 1008.4
20260901132526 52 0 0.0 1.0 0.00 0.00 0.00 97 1008.5
20260901132026 52 0 0.0 1.0 0.00 0.00 0.00 97 1008.5
20260901131545 52 300 0.0 1.0 0.00 0.00 0.00 96 1008.5
20260901131024 52 300 0.0 1.0 0.00 0.00 0.00 97 1008.6
20260901130525 52 326 0.0 1.0 0.00 0.00 0.00 96 1008.5
20260901130044 52 327 0.0 1.0 0.00 0.00 0.00 96 1008.5
20260901125524 52 327 0.0 1.0 0.00 0.00 0.00 96 1008.6
20260901125024 52 0 0.0 1.0 0.00 0.00 0.00 96 1008.6
20260901124553 52 0 0.0 0.0 0.00 0.00 0.00 96 1008.6
20260901124024 52 0 0.0 1.0 0.00 0.00 0.00 96 1008.6
20260901123525 52 0 0.0 1.0 0.00 0.00 0.00 96 1008.6
20260901123048 52 292 1.0 1.0 0.00 0.00 0.00 96 1008.7
20260901122526 52 294 0.0 1.0 0.00 0.00 0.00 96 1008.6
20260901122025 52 0 0.0 1.0 0.00 0.00 0.00 96 1008.5
20260901121547 52 304 0.0 1.0 0.00 0.00 0.00 96 1008.5
20260901121028 52 304 0.0 1.0 0.00 0.00 0.00 96 1008.6
20260901120524 53 304 0.0 1.0 0.00 0.00 0.00 96 1008.5
20260901120049 53 297 1.0 1.0 0.00 0.00 0.00 96 1008.5
20260901115524 53 292 0.0 1.0 0.00 0.00 0.00 96 1008.4
20260901115028 53 292 0.0 1.0 0.00 0.00 0.00 96 1008.5
20260901114546 53 292 1.0 1.0 0.00 0.00 0.00 96 1008.4
20260901114025 53 300 0.0 0.0 0.00 0.00 0.00 96 1008.5
20260901113525 53 0 0.0 0.0 0.00 0.00 0.00 96 1008.5
20260901113049 53 0 0.0 0.0 0.00 0.00 0.00 96 1008.6
20260901112526 53 0 0.0 0.0 0.00 0.00 0.00 96 1008.6
20260901112026 53 0 0.0 1.0 0.00 0.00 0.00 96 1008.4
20260901111549 53 0 0.0 1.0 0.00 0.00 0.00 96 1008.4
20260901111025 53 0 0.0 1.0 0.00 0.00 0.00 96 1008.5
20260901110524 53 297 0.0 1.0 0.00 0.00 0.00 96 1008.5
20260901110047 53 297 0.0 1.0 0.00 0.00 0.00 96 1008.5
20260901105525 53 297 0.0 1.0 0.00 0.00 0.00 96 1008.5
20260901105025 54 297 0.0 1.0 0.00 0.00 0.00 96 1008.3
20260901104546 54 0 0.0 1.0 0.00 0.00 0.00 96 1008.5
20260901104026 54 0 1.0 1.0 0.00 0.00 0.00 96 1008.4
20260901103525 54 297 1.0 1.0 0.00 0.00 0.00 95 1008.3
20260901103055 54 297 0.0 1.0 0.00 0.00 0.00 96 1008.2
20260901102527 54 297 1.0 1.0 0.00 0.00 0.00 96 1008.3
20260901102026 54 314 1.0 1.0 0.00 0.00 0.00 95 1008.2
20260901101607 54 6 0.0 1.0 0.00 0.00 0.00 96 1008.3
20260901101022 54 0 0.0 0.0 0.00 0.00 0.00 96 1008.2
20260901100527 54 0 0.0 1.0 0.00 0.00 0.00 95 1008.2
20260901100049 55 0 0.0 1.0 0.00 0.00 0.00 95 1008.2
20260901095525 55 6 0.0 1.0 0.00 0.00 0.00 96 1008.1
20260901095024 55 6 0.0 1.0 0.00 0.00 0.00 96 1008.2
20260901094546 55 287 0.0 1.0 0.00 0.00 0.00 96 1008.2
20260901094025 55 287 1.0 2.0 0.00 0.00 0.00 96 1008.1
20260901093525 55 287 1.0 2.0 0.00 0.00 0.00 95 1008.2
20260901093050 55 287 1.0 2.0 0.00 0.00 0.00 95 1008.2
20260901092525 55 287 0.0 1.0 0.00 0.00 0.00 95 1008.2
20260901092030 55 287 1.0 1.0 0.00 0.00 0.00 95 1008.4
20260901091546 55 0 0.0 0.0 0.00 0.00 0.00 95 1008.4
20260901091025 55 0 0.0 0.0 0.00 0.00 0.00 95 1008.2
20260901090525 55 0 0.0 0.0 0.00 0.00 0.00 95 1008.3
20260901090045 55 0 0.0 1.0 0.00 0.00 0.00 95 1008.3
20260901085525 55 0 0.0 2.0 0.00 0.00 0.00 95 1008.3
20260901085024 55 289 0.0 2.0 0.00 0.00 0.00 96 1008.3
20260901084546 55 289 1.0 2.0 0.00 0.00 0.00 95 1008.4
20260901084026 55 283 1.0 2.0 0.00 0.00 0.00 95 1008.4
20260901083523 55 290 1.0 2.0 0.00 0.00 0.00 95 1008.4
20260901083051 55 290 1.0 2.0 0.00 0.00 0.00 95 1008.4
20260901082528 55 290 1.0 2.0 0.00 0.00 0.00 95 1008.3
20260901082023 56 293 0.0 1.0 0.00 0.00 0.00 95 1008.3
20260901081551 56 0 0.0 1.0 0.00 0.00 0.00 95 1008.3
20260901081027 56 288 0.0 1.0 0.00 0.00 0.00 95 1008.3
20260901080525 56 288 0.0 1.0 0.00 0.00 0.00 95 1008.4
20260901080056 56 288 0.0 1.0 0.00 0.00 0.00 95 1008.3
20260901075526 56 288 1.0 1.0 0.00 0.00 0.00 95 1008.3
20260901075027 56 288 1.0 2.0 0.00 0.00 0.00 95 1008.3
20260901074549 56 288 1.0 2.0 0.00 0.00 0.00 95 1008.3
20260901074024 57 293 0.0 2.0 0.00 0.00 0.00 95 1008.2
20260901073525 57 0 0.0 0.0 0.00 0.00 0.00 95 1008.3
20260901073047 57 0 0.0 0.0 0.00 0.00 0.00 95 1008.3
20260901072524 57 0 0.0 0.0 0.00 0.00 0.00 95 1008.2
20260901072026 57 0 0.0 0.0 0.00 0.00 0.00 95 1008.4
20260901071548 57 0 0.0 0.0 0.00 0.00 0.00 94 1008.3
20260901071025 57 0 0.0 0.0 0.00 0.00 0.00 94 1008.4
20260901070526 57 0 0.0 0.0 0.00 0.00 0.00 94 1008.6
20260901070047 57 0 0.0 0.0 0.00 0.00 0.00 94 1008.5
20260901065528 57 0 0.0 1.0 0.00 0.00 0.00 94 1008.5
20260901065025 57 0 0.0 1.0 0.00 0.00 0.00 93 1008.6
20260901064543 58 210 0.0 1.0 0.00 0.00 0.00 93 1008.5
20260901064024 58 0 0.0 1.0 0.00 0.00 0.00 93 1008.5
20260901063528 58 211 0.0 1.0 0.00 0.00 0.00 93 1008.4
20260901063058 58 211 0.0 1.0 0.00 0.00 0.00 92 1008.5
20260901062524 58 210 0.0 1.0 0.00 0.00 0.00 92 1008.4
20260901062025 59 210 1.0 1.0 0.00 0.00 0.00 92 1008.5
20260901061550 59 203 1.0 1.0 0.00 0.00 0.00 92 1008.4
20260901061029 59 0 0.0 0.0 0.00 0.00 0.00 91 1008.5
20260901060526 60 0 0.0 0.0 0.00 0.00 0.00 91 1008.5
20260901060047 60 0 0.0 0.0 0.00 0.00 0.00 91 1008.5
20260901055527 60 0 0.0 0.0 0.00 0.00 0.00 90 1008.5
20260901055031 61 0 0.0 1.0 0.00 0.00 0.00 90 1008.5
20260901054547 61 0 0.0 1.0 0.00 0.00 0.00 90 1008.6
20260901054054 61 167 0.0 1.0 0.00 0.00 0.00 90 1008.6
20260901053525 62 0 0.0 1.0 0.00 0.00 0.00 89 1008.6
20260901053114 62 178 0.0 2.0 0.00 0.00 0.00 89 1008.6
20260901052524 62 142 1.0 3.0 0.00 0.00 0.00 89 1008.5
20260901052026 62 205 1.0 3.0 0.00 0.00 0.00 89 1008.4
20260901051603 62 0 0.0 3.0 0.00 0.00 0.00 88 1008.5
20260901051025 62 0 0.0 5.0 0.00 0.00 0.00 88 1008.4
20260901050524 62 0 0.0 5.0 0.00 0.00 0.00 88 1008.3
20260901050048 63 292 1.0 4.0 0.00 0.00 0.00 89 1008.3
20260901045527 63 259 1.0 4.0 0.00 0.00 0.00 88 1008.4
20260901045027 63 298 1.0 4.0 0.00 0.00 0.00 88 1008.5
20260901044555 63 280 1.0 4.0 0.00 0.00 0.00 88 1008.4
20260901044026 63 285 2.0 5.0 0.00 0.00 0.00 88 1008.4
20260901043526 63 299 2.0 5.0 0.00 0.00 0.00 88 1008.3
20260901043057 63 300 3.0 6.0 0.00 0.00 0.00 88 1008.3
20260901042525 63 283 2.0 6.0 0.00 0.00 0.00 88 1008.3
20260901042025 63 288 3.0 6.0 0.00 0.00 0.00 88 1008.3
20260901041600 63 295 3.0 5.0 0.00 0.00 0.00 87 1008.5
20260901041027 63 299 2.0 4.0 0.00 0.00 0.00 87 1008.4
20260901040528 64 292 2.0 4.0 0.00 0.00 0.00 86 1008.5
20260901040047 64 297 0.0 4.0 0.00 0.00 0.00 86 1008.5
20260901035527 64 288 1.0 5.0 0.00 0.00 0.00 85 1008.5
20260901035026 64 285 1.0 5.0 0.00 0.00 0.00 85 1008.4
20260901034553 64 303 2.0 7.0 0.00 0.00 0.00 85 1008.3
20260901034025 64 297 4.0 7.0 0.00 0.00 0.00 84 1008.3
20260901033525 64 299 4.0 7.0 0.00 0.00 0.00 84 1008.2
20260901033049 64 300 4.0 7.0 0.00 0.00 0.00 83 1008.2
20260901032525 64 309 4.0 7.0 0.00 0.00 0.00 82 1008.3
20260901032026 65 298 4.0 7.0 0.00 0.00 0.00 81 1008.2
20260901031556 65 302 4.0 7.0 0.00 0.00 0.00 81 1008.2
20260901031027 65 283 4.0 8.0 0.00 0.00 0.00 80 1008.3
20260901030524 65 313 5.0 8.0 0.00 0.00 0.00 80 1008.3
20260901030048 65 335 5.0 8.0 0.00 0.00 0.00 80 1008.3
20260901025528 65 281 5.0 8.0 0.00 0.00 0.00 79 1008.4
20260901025029 65 317 4.0 7.0 0.00 0.00 0.00 79 1008.5
20260901024552 66 301 5.0 7.0 0.00 0.00 0.00 78 1008.5
20260901024025 66 286 5.0 8.0 0.00 0.00 0.00 77 1008.5
20260901023537 66 296 5.0 9.0 0.00 0.00 0.00 77 1008.4
20260901023047 66 306 5.0 9.0 0.00 0.00 0.00 76 1008.5
20260901022528 66 296 5.0 9.0 0.00 0.00 0.00 76 1008.6
20260901022030 67 291 7.0 9.0 0.00 0.00 0.00 74 1008.6
20260901021548 67 304 6.0 10.0 0.00 0.00 0.00 73 1008.7
20260901021027 67 295 7.0 10.0 0.00 0.00 0.00 71 1008.7
20260901020529 67 310 6.0 12.0 0.00 0.00 0.00 70 1008.7
20260901020056 68 274 8.0 12.0 0.00 0.00 0.00 69 1008.7
20260901015526 68 300 6.0 10.0 0.00 0.00 0.00 67 1008.8
20260901015025 68 304 6.0 10.0 0.00 0.00 0.00 67 1008.8
20260901014558 68 286 5.0 10.0 0.00 0.00 0.00 67 1008.9
20260901014025 68 295 6.0 10.0 0.00 0.00 0.00 67 1008.9
20260901013525 68 286 6.0 10.0 0.00 0.00 0.00 66 1008.8
20260901013049 68 308 6.0 10.0 0.00 0.00 0.00 67 1008.9
20260901012526 68 290 7.0 11.0 0.00 0.00 0.00 67 1009.0
20260901012029 69 314 6.0 11.0 0.00 0.00 0.00 68 1009.0
20260901011547 69 270 6.0 12.0 0.00 0.00 0.00 67 1009.0
20260901011030 69 305 6.0 12.0 0.00 0.00 0.00 67 1009.0
20260901010523 69 330 7.0 13.0 0.00 0.00 0.00 67 1009.1
20260901010051 69 288 8.0 13.0 0.00 0.00 0.00 67 1009.1
20260901005527 70 298 6.0 11.0 0.00 0.00 0.00 66 1009.2
20260901005025 69 303 5.0 11.0 0.00 0.00 0.00 68 1009.2
20260901004551 69 300 7.0 13.0 0.00 0.00 0.00 66 1009.1
20260901004024 69 288 8.0 13.0 0.00 0.00 0.00 67 1009.2
20260901003525 69 322 6.0 12.0 0.00 0.00 0.00 68 1009.3
20260901003045 69 288 7.0 12.0 0.00 0.00 0.00 70 1009.3
20260901002525 68 292 8.0 12.0 0.00 0.00 0.00 69 1009.4
20260901002026 68 286 7.0 12.0 0.00 0.00 0.00 69 1009.4
20260901001556 68 300 7.0 13.0 0.00 0.00 0.00 69 1009.4
20260901001025 68 281 7.0 13.0 0.00 0.00 0.00 69 1009.5
20260901000525 69 288 8.0 13.0 0.00 0.00 0.00 69 1009.6
20260901000051 69 290 7.0 13.0 0.00 0.00 0.00 68 1009.6
20260831235524 69 300 8.0 13.0 0.00 0.00 0.00 67 1009.6
20260831235025 69 297 8.0 13.0 0.00 0.00 0.00 68 1009.8
20260831234613 69 296 6.0 11.0 0.00 0.00 0.00 69 1009.8
20260831234026 69 325 7.0 11.0 0.00 0.00 0.00 68 1009.9
20260831233524 69 306 7.0 11.0 0.00 0.00 0.00 68 1010.0
20260831233054 69 298 6.0 11.0 0.00 0.00 0.00 68 1010.0
20260831232527 69 300 5.0 11.0 0.00 0.00 0.00 68 1010.0
20260831232025 69 278 6.0 11.0 0.00 0.00 0.00 69 1010.1
20260831231545 69 297 7.0 11.0 0.00 0.00 0.00 68 1010.2
20260831231026 70 266 6.0 11.0 0.00 0.00 0.00 68 1010.1
20260831230524 69 252 6.0 11.0 0.00 0.00 0.00 68 1010.2
20260831230054 69 282 7.0 11.0 0.00 0.00 0.00 69 1010.3
20260831225526 70 303 4.0 8.0 0.00 0.00 0.00 70 1010.3
20260831225026 70 300 4.0 12.0 0.00 0.00 0.00 69 1010.4
20260831224549 69 319 5.0 12.0 0.00 0.00 0.00 69 1010.3
20260831224025 69 290 6.0 11.0 0.00 0.00 0.00 70 1010.4
20260831223525 69 311 7.0 12.0 0.00 0.00 0.00 69 1010.6
20260831223047 69 275 8.0 12.0 0.00 0.00 0.00 69 1010.7
20260831222528 69 264 8.0 12.0 0.00 0.00 0.00 69 1010.7
20260831222025 69 281 7.0 11.0 0.00 0.00 0.00 69 1010.8
20260831221546 68 275 8.0 12.0 0.00 0.00 0.00 69 1010.8
20260831221028 68 272 7.0 13.0 0.00 0.00 0.00 70 1010.8
20260831220531 68 269 7.0 13.0 0.00 0.00 0.00 71 1011.0
20260831220053 68 262 7.0 15.0 0.00 0.00 0.00 70 1011.1
20260831215525 68 309 6.0 15.0 0.00 0.00 0.00 72 1011.2
20260831215030 68 296 9.0 14.0 0.00 0.00 0.00 71 1011.3
20260831214556 69 290 5.0 11.0 0.00 0.00 0.00 72 1011.4
20260831214024 68 288 5.0 11.0 0.00 0.00 0.00 74 1011.4
20260831213524 68 289 4.0 11.0 0.00 0.00 0.00 75 1011.5
20260831213046 68 294 6.0 12.0 0.00 0.00 0.00 75 1011.5
20260831212525 68 269 7.0 14.0 0.00 0.00 0.00 75 1011.5
20260831212025 67 285 7.0 14.0 0.00 0.00 0.00 75 1011.6
20260831211543 67 264 7.0 12.0 0.00 0.00 0.00 76 1011.6
20260831211027 67 297 6.0 11.0 0.00 0.00 0.00 76 1011.8
20260831210525 67 274 7.0 13.0 0.00 0.00 0.00 76 1011.8
20260831210048 67 304 8.0 13.0 0.00 0.00 0.00 77 1011.9
20260831205529 67 295 8.0 13.0 0.00 0.00 0.00 77 1011.9
20260831205026 67 311 8.0 13.0 0.00 0.00 0.00 77 1012.0
20260831204547 67 267 7.0 13.0 0.00 0.00 0.00 78 1012.0
20260831204029 67 293 7.0 13.0 0.00 0.00 0.00 77 1012.0
20260831203524 67 295 8.0 13.0 0.00 0.00 0.00 77 1012.2
20260831203047 67 271 6.0 12.0 0.00 0.00 0.00 77 1012.2
20260831202527 67 287 6.0 12.0 0.00 0.00 0.00 79 1012.3
20260831202026 67 297 6.0 13.0 0.00 0.00 0.00 78 1012.4
20260831201550 67 278 7.0 13.0 0.00 0.00 0.00 78 1012.4
20260831201028 67 283 6.0 10.0 0.00 0.00 0.00 79 1012.4
20260831200527 67 285 6.0 10.0 0.00 0.00 0.00 78 1012.5
20260831200048 66 299 6.0 11.0 0.00 0.00 0.00 79 1012.5
20260831195526 66 259 6.0 11.0 0.00 0.00 0.00 79 1012.5
20260831195025 66 271 6.0 11.0 0.00 0.00 0.00 78 1012.7
20260831194547 66 294 6.0 11.0 0.00 0.00 0.00 78 1012.7
20260831194030 66 283 7.0 11.0 0.00 0.00 0.00 77 1012.7
20260831193526 66 311 6.0 10.0 0.00 0.00 0.00 77 1012.9
20260831193044 66 296 6.0 10.0 0.00 0.00 0.00 77 1012.9